| time (UTC) | temp F | wind direction | speed MPH | gust MPH | rain 1hr in | rain 24hr in | rain mn in | humidity % | barometer mb |
| 20260905101739 | 78 | 95 | 8.0 | 17.0 | 0.00 | 0.03 | 0.00 | 79 | 1012.5 |
| 20260905101239 | 78 | 109 | 11.0 | 19.0 | 0.00 | 0.03 | 0.00 | 79 | 1012.4 |
| 20260905100739 | 77 | 62 | 10.0 | 19.0 | 0.00 | 0.03 | 0.00 | 78 | 1012.7 |
| 20260905100239 | 77 | 59 | 14.0 | 19.0 | 0.00 | 0.03 | 0.00 | 79 | 1012.8 |
| 20260905100011 | 77 | 85 | 13.0 | 23.0 | 0.00 | 0.03 | 0.03 | 80 | 1012.8 |
| 20260905095239 | 77 | 99 | 9.0 | 23.0 | 0.00 | 0.03 | 0.03 | 79 | 1012.8 |
| 20260905094740 | 77 | 77 | 8.0 | 19.0 | 0.00 | 0.03 | 0.03 | 80 | 1012.9 |
| 20260905094240 | 77 | 77 | 8.0 | 23.0 | 0.00 | 0.03 | 0.03 | 80 | 1013.1 |
| 20260905093739 | 77 | 54 | 9.0 | 23.0 | 0.00 | 0.03 | 0.03 | 80 | 1013.0 |
| 20260905093239 | 77 | 79 | 13.0 | 23.0 | 0.00 | 0.03 | 0.03 | 78 | 1013.3 |
| 20260905093010 | 77 | 81 | 12.0 | 21.0 | 0.00 | 0.03 | 0.03 | 79 | 1013.1 |
| 20260905092239 | 78 | 19 | 10.0 | 21.0 | 0.00 | 0.03 | 0.03 | 80 | 1013.2 |
| 20260905091739 | 78 | 56 | 15.0 | 19.0 | 0.00 | 0.03 | 0.03 | 79 | 1013.1 |
| 20260905091511 | 78 | 120 | 6.0 | 19.0 | 0.00 | 0.03 | 0.03 | 79 | 1013.0 |
| 20260905090740 | 78 | 106 | 11.0 | 17.0 | 0.00 | 0.03 | 0.03 | 79 | 1013.2 |
| 20260905090241 | 78 | 73 | 8.0 | 23.0 | 0.00 | 0.03 | 0.03 | 78 | 1013.4 |
| 20260905085742 | 78 | 87 | 11.0 | 23.0 | 0.00 | 0.03 | 0.03 | 78 | 1013.5 |
| 20260905085512 | 78 | 89 | 8.0 | 17.0 | 0.00 | 0.03 | 0.03 | 79 | 1013.2 |
| 20260905084740 | 78 | 87 | 6.0 | 17.0 | 0.00 | 0.03 | 0.03 | 79 | 1013.4 |
| 20260905084241 | 78 | 20 | 10.0 | 17.0 | 0.00 | 0.03 | 0.03 | 78 | 1013.4 |
| 20260905083740 | 78 | 98 | 11.0 | 17.0 | 0.00 | 0.03 | 0.03 | 78 | 1013.3 |
| 20260905083240 | 78 | 125 | 11.0 | 17.0 | 0.00 | 0.03 | 0.03 | 78 | 1013.6 |
| 20260905082741 | 78 | 97 | 4.0 | 17.0 | 0.00 | 0.03 | 0.03 | 78 | 1013.6 |
| 20260905082240 | 78 | 98 | 7.0 | 19.0 | 0.00 | 0.03 | 0.03 | 78 | 1013.6 |
| 20260905082010 | 78 | 50 | 10.0 | 21.0 | 0.00 | 0.03 | 0.03 | 77 | 1013.5 |
| 20260905081255 | 78 | 106 | 8.0 | 21.0 | 0.00 | 0.03 | 0.03 | 78 | 1013.5 |
| 20260905080740 | 78 | 98 | 7.0 | 19.0 | 0.00 | 0.04 | 0.03 | 78 | 1013.7 |
| 20260905080240 | 78 | 78 | 8.0 | 20.0 | 0.00 | 0.04 | 0.03 | 78 | 1013.7 |
| 20260905075739 | 78 | 81 | 8.0 | 20.0 | 0.00 | 0.04 | 0.03 | 78 | 1013.8 |
| 20260905075238 | 78 | 81 | 3.0 | 20.0 | 0.00 | 0.04 | 0.03 | 79 | 1013.6 |
| 20260905074734 | 78 | 89 | 6.0 | 21.0 | 0.00 | 0.07 | 0.03 | 78 | 1013.6 |
| 20260905074728 | 78 | 107 | 7.0 | 20.0 | 0.00 | 0.04 | 0.03 | 79 | 1013.5 |
| 20260905073729 | 78 | 61 | 8.0 | 21.0 | 0.00 | 0.07 | 0.03 | 78 | 1013.8 |
| 20260905073227 | 78 | 120 | 12.0 | 20.0 | 0.00 | 0.07 | 0.03 | 78 | 1013.7 |
| 20260905072728 | 78 | 92 | 11.0 | 20.0 | 0.00 | 0.07 | 0.03 | 78 | 1013.6 |
| 20260905072228 | 78 | 77 | 10.0 | 20.0 | 0.00 | 0.07 | 0.03 | 78 | 1013.5 |
| 20260905071728 | 78 | 78 | 7.0 | 20.0 | 0.00 | 0.07 | 0.03 | 78 | 1013.6 |
| 20260905071228 | 77 | 76 | 9.0 | 17.0 | 0.00 | 0.07 | 0.03 | 77 | 1013.7 |
| 20260905070728 | 78 | 87 | 6.0 | 17.0 | 0.00 | 0.07 | 0.03 | 78 | 1013.5 |
| 20260905070227 | 78 | 82 | 5.0 | 17.0 | 0.00 | 0.07 | 0.03 | 78 | 1013.5 |
| 20260905065727 | 78 | 122 | 7.0 | 17.0 | 0.00 | 0.07 | 0.03 | 78 | 1013.5 |
| 20260905065458 | 78 | 59 | 6.0 | 15.0 | 0.00 | 0.07 | 0.03 | 78 | 1013.4 |
| 20260905064728 | 78 | 56 | 8.0 | 16.0 | 0.00 | 0.07 | 0.03 | 78 | 1013.4 |
| 20260905064228 | 78 | 85 | 12.0 | 23.0 | 0.00 | 0.07 | 0.03 | 78 | 1013.2 |
| 20260905063728 | 78 | 64 | 9.0 | 23.0 | 0.00 | 0.07 | 0.03 | 77 | 1013.1 |
| 20260905063501 | 78 | 111 | 8.0 | 17.0 | 0.00 | 0.07 | 0.03 | 77 | 1013.0 |
| 20260905062729 | 78 | 74 | 10.0 | 20.0 | 0.00 | 0.07 | 0.03 | 77 | 1013.1 |
| 20260905062227 | 78 | 75 | 7.0 | 21.0 | 0.00 | 0.07 | 0.03 | 77 | 1013.2 |
| 20260905061728 | 78 | 55 | 6.0 | 21.0 | 0.00 | 0.07 | 0.03 | 76 | 1012.9 |
| 20260905061228 | 78 | 85 | 5.0 | 19.0 | 0.00 | 0.07 | 0.03 | 76 | 1013.0 |
| 20260905060727 | 78 | 97 | 9.0 | 19.0 | 0.00 | 0.07 | 0.03 | 76 | 1012.9 |
| 20260905060227 | 78 | 62 | 11.0 | 17.0 | 0.00 | 0.07 | 0.03 | 76 | 1012.9 |
| 20260905055729 | 78 | 86 | 11.0 | 19.0 | 0.00 | 0.07 | 0.03 | 75 | 1013.0 |
| 20260905055228 | 78 | 82 | 10.0 | 19.0 | 0.00 | 0.07 | 0.03 | 74 | 1013.0 |
| 20260905054728 | 78 | 78 | 7.0 | 17.0 | 0.00 | 0.07 | 0.03 | 74 | 1012.7 |
| 20260905054458 | 78 | 81 | 4.0 | 17.0 | 0.00 | 0.07 | 0.03 | 74 | 1012.7 |
| 20260905053727 | 78 | 59 | 6.0 | 19.0 | 0.00 | 0.07 | 0.03 | 74 | 1012.8 |
| 20260905053228 | 78 | 98 | 11.0 | 19.0 | 0.00 | 0.07 | 0.03 | 74 | 1012.9 |
| 20260905052728 | 78 | 59 | 9.0 | 15.0 | 0.00 | 0.07 | 0.03 | 75 | 1012.7 |
| 20260905052500 | 78 | 119 | 9.0 | 20.0 | 0.00 | 0.07 | 0.03 | 75 | 1012.5 |
| 20260905051729 | 78 | 104 | 11.0 | 20.0 | 0.00 | 0.07 | 0.03 | 75 | 1012.4 |
| 20260905051227 | 78 | 85 | 11.0 | 19.0 | 0.00 | 0.07 | 0.03 | 75 | 1012.2 |
| 20260905050728 | 78 | 127 | 10.0 | 19.0 | 0.00 | 0.07 | 0.03 | 73 | 1012.6 |
| 20260905050227 | 78 | 97 | 6.0 | 19.0 | 0.00 | 0.07 | 0.03 | 71 | 1012.4 |
| 20260905045728 | 78 | 92 | 2.0 | 21.0 | 0.00 | 0.07 | 0.03 | 71 | 1012.3 |
| 20260905045229 | 78 | 82 | 4.0 | 17.0 | 0.00 | 0.07 | 0.03 | 70 | 1012.3 |
| 20260905044727 | 78 | 106 | 9.0 | 20.0 | 0.00 | 0.07 | 0.03 | 72 | 1012.3 |
| 20260905044227 | 78 | 73 | 8.0 | 20.0 | 0.00 | 0.07 | 0.03 | 71 | 1012.1 |
| 20260905043728 | 78 | 57 | 9.0 | 19.0 | 0.00 | 0.07 | 0.03 | 72 | 1012.0 |
| 20260905043228 | 78 | 68 | 5.0 | 16.0 | 0.00 | 0.07 | 0.03 | 71 | 1012.0 |
| 20260905042728 | 78 | 93 | 0.0 | 20.0 | 0.00 | 0.07 | 0.03 | 69 | 1012.0 |
| 20260905042228 | 78 | 109 | 2.0 | 20.0 | 0.00 | 0.07 | 0.03 | 70 | 1011.8 |
| 20260905041727 | 79 | 91 | 9.0 | 16.0 | 0.00 | 0.07 | 0.03 | 71 | 1012.0 |
| 20260905041458 | 79 | 78 | 8.0 | 16.0 | 0.00 | 0.07 | 0.03 | 71 | 1011.7 |
| 20260905041334 | 79 | 113 | 8.0 | 16.0 | 0.00 | 0.07 | 0.03 | 71 | 1011.9 |
| 20260905040459 | 79 | 65 | 6.0 | 19.0 | 0.00 | 0.07 | 0.03 | 71 | 1011.7 |
| 20260905035729 | 79 | 110 | 0.0 | 19.0 | 0.00 | 0.07 | 0.03 | 71 | 1011.6 |
| 20260905035228 | 79 | 112 | 6.0 | 19.0 | 0.00 | 0.07 | 0.03 | 70 | 1011.7 |
| 20260905034728 | 79 | 102 | 0.0 | 16.0 | 0.00 | 0.07 | 0.03 | 69 | 1011.7 |
| 20260905034228 | 80 | 111 | 6.0 | 15.0 | 0.00 | 0.07 | 0.03 | 69 | 1011.6 |
| 20260905034004 | 80 | 85 | 0.0 | 20.0 | 0.00 | 0.07 | 0.03 | 70 | 1011.9 |
| 20260905033228 | 80 | 105 | 7.0 | 20.0 | 0.00 | 0.07 | 0.03 | 69 | 1011.5 |
| 20260905032729 | 80 | 89 | 9.0 | 20.0 | 0.00 | 0.07 | 0.03 | 69 | 1011.6 |
| 20260905032458 | 80 | 110 | 11.0 | 20.0 | 0.00 | 0.07 | 0.03 | 69 | 1011.5 |
| 20260905031728 | 80 | 93 | 6.0 | 17.0 | 0.00 | 0.07 | 0.03 | 66 | 1011.6 |
| 20260905031229 | 80 | 90 | 4.0 | 17.0 | 0.00 | 0.07 | 0.03 | 70 | 1011.7 |
| 20260905030729 | 80 | 68 | 3.0 | 15.0 | 0.00 | 0.07 | 0.03 | 68 | 1011.8 |
| 20260905030228 | 80 | 78 | 2.0 | 17.0 | 0.00 | 0.07 | 0.03 | 68 | 1011.6 |
| 20260905025729 | 80 | 64 | 1.0 | 17.0 | 0.00 | 0.07 | 0.03 | 67 | 1011.8 |
| 20260905025458 | 80 | 61 | 12.0 | 23.0 | 0.00 | 0.07 | 0.03 | 68 | 1011.6 |
| 20260905024728 | 81 | 66 | 2.0 | 23.0 | 0.00 | 0.07 | 0.03 | 67 | 1011.7 |
| 20260905024228 | 82 | 86 | 8.0 | 17.0 | 0.00 | 0.07 | 0.03 | 67 | 1011.8 |
| 20260905023727 | 81 | 104 | 11.0 | 19.0 | 0.00 | 0.07 | 0.03 | 66 | 1011.5 |
| 20260905023229 | 81 | 37 | 6.0 | 20.0 | 0.00 | 0.07 | 0.03 | 65 | 1011.6 |
| 20260905022727 | 81 | 112 | 13.0 | 20.0 | 0.00 | 0.07 | 0.03 | 67 | 1011.6 |
| 20260905022227 | 81 | 72 | 8.0 | 19.0 | 0.00 | 0.07 | 0.03 | 67 | 1011.7 |
| 20260905021727 | 81 | 127 | 13.0 | 17.0 | 0.00 | 0.07 | 0.03 | 67 | 1011.6 |
| 20260905021227 | 82 | 120 | 13.0 | 21.0 | 0.00 | 0.07 | 0.03 | 67 | 1011.6 |
| 20260905020959 | 82 | 150 | 11.0 | 21.0 | 0.00 | 0.07 | 0.03 | 67 | 1011.7 |
| 20260905020228 | 82 | 64 | 9.0 | 17.0 | 0.00 | 0.07 | 0.03 | 66 | 1011.6 |
| 20260905015728 | 82 | 83 | 10.0 | 15.0 | 0.00 | 0.07 | 0.03 | 68 | 1011.6 |
| 20260905015227 | 82 | 96 | 11.0 | 17.0 | 0.00 | 0.07 | 0.03 | 66 | 1011.3 |
| 20260905014727 | 82 | 74 | 11.0 | 17.0 | 0.00 | 0.07 | 0.03 | 67 | 1011.6 |
| 20260905014227 | 82 | 114 | 9.0 | 17.0 | 0.00 | 0.07 | 0.03 | 62 | 1011.6 |
| 20260905013730 | 82 | 21 | 8.0 | 17.0 | 0.00 | 0.07 | 0.03 | 64 | 1011.9 |
| 20260905013229 | 82 | 53 | 8.0 | 24.0 | 0.00 | 0.07 | 0.03 | 63 | 1011.6 |
| 20260905012729 | 82 | 83 | 9.0 | 24.0 | 0.00 | 0.07 | 0.03 | 64 | 1011.5 |
| 20260905012228 | 82 | 106 | 8.0 | 17.0 | 0.00 | 0.07 | 0.03 | 65 | 1011.5 |
| 20260905011729 | 82 | 66 | 11.0 | 16.0 | 0.00 | 0.07 | 0.03 | 64 | 1011.7 |
| 20260905011227 | 82 | 76 | 6.0 | 19.0 | 0.00 | 0.07 | 0.03 | 66 | 1011.7 |
| 20260905010733 | 82 | 74 | 10.0 | 21.0 | 0.00 | 0.07 | 0.03 | 67 | 1011.4 |
| 20260905010728 | 82 | 41 | 8.0 | 19.0 | 0.00 | 0.07 | 0.03 | 65 | 1011.6 |
| 20260905005728 | 83 | 75 | 6.0 | 21.0 | 0.00 | 0.07 | 0.03 | 65 | 1011.7 |
| 20260905005228 | 82 | 93 | 14.0 | 21.0 | 0.00 | 0.07 | 0.03 | 63 | 1011.6 |
| 20260905004728 | 82 | 78 | 10.0 | 21.0 | 0.00 | 0.07 | 0.03 | 64 | 1011.9 |
| 20260905004227 | 82 | 89 | 12.0 | 21.0 | 0.00 | 0.07 | 0.03 | 65 | 1011.4 |
| 20260905003728 | 83 | 77 | 12.0 | 20.0 | 0.00 | 0.07 | 0.03 | 62 | 1011.7 |
| 20260905003228 | 82 | 51 | 13.0 | 25.0 | 0.00 | 0.07 | 0.03 | 66 | 1011.7 |
| 20260905002958 | 83 | 78 | 13.0 | 20.0 | 0.00 | 0.07 | 0.03 | 64 | 1011.7 |
| 20260905002228 | 82 | 95 | 11.0 | 21.0 | 0.00 | 0.07 | 0.03 | 63 | 1011.8 |
| 20260905001729 | 83 | 85 | 11.0 | 21.0 | 0.00 | 0.07 | 0.03 | 65 | 1012.1 |
| 20260905001227 | 83 | 99 | 13.0 | 24.0 | 0.00 | 0.07 | 0.03 | 65 | 1011.9 |
| 20260905000727 | 83 | 97 | 8.0 | 24.0 | 0.00 | 0.07 | 0.03 | 65 | 1012.0 |
| 20260905000501 | 83 | 107 | 11.0 | 21.0 | 0.00 | 0.07 | 0.03 | 64 | 1012.2 |
| 20260904235727 | 83 | 116 | 9.0 | 21.0 | 0.00 | 0.07 | 0.03 | 65 | 1012.4 |
| 20260904235228 | 83 | 105 | 11.0 | 23.0 | 0.00 | 0.07 | 0.03 | 64 | 1012.4 |
| 20260904234728 | 83 | 70 | 13.0 | 23.0 | 0.00 | 0.07 | 0.03 | 63 | 1012.5 |
| 20260904234228 | 83 | 112 | 11.0 | 20.0 | 0.00 | 0.07 | 0.03 | 64 | 1012.6 |
| 20260904233959 | 83 | 83 | 12.0 | 24.0 | 0.00 | 0.07 | 0.03 | 63 | 1012.7 |
| 20260904233228 | 83 | 91 | 13.0 | 24.0 | 0.00 | 0.07 | 0.03 | 62 | 1012.7 |
| 20260904232959 | 83 | 89 | 15.0 | 21.0 | 0.00 | 0.07 | 0.03 | 63 | 1013.0 |
| 20260904232228 | 83 | 90 | 9.0 | 26.0 | 0.00 | 0.07 | 0.03 | 64 | 1012.7 |
| 20260904231733 | 83 | 83 | 13.0 | 24.0 | 0.00 | 0.07 | 0.03 | 67 | 1013.0 |
| 20260904231727 | 83 | 99 | 11.0 | 26.0 | 0.00 | 0.07 | 0.03 | 66 | 1013.0 |
| 20260904230727 | 83 | 99 | 8.0 | 24.0 | 0.00 | 0.07 | 0.03 | 70 | 1012.9 |
| 20260904230227 | 83 | 86 | 13.0 | 23.0 | 0.00 | 0.07 | 0.03 | 69 | 1012.9 |
| 20260904225728 | 83 | 52 | 9.0 | 23.0 | 0.00 | 0.07 | 0.03 | 68 | 1012.9 |
| 20260904225234 | 82 | 122 | 12.0 | 25.0 | 0.00 | 0.07 | 0.03 | 69 | 1013.0 |
| 20260904225228 | 83 | 84 | 11.0 | 25.0 | 0.00 | 0.07 | 0.03 | 69 | 1013.0 |
| 20260904224229 | 83 | 132 | 12.0 | 23.0 | 0.00 | 0.07 | 0.03 | 67 | 1013.1 |
| 20260904223727 | 83 | 77 | 8.0 | 24.0 | 0.00 | 0.07 | 0.03 | 68 | 1013.1 |
| 20260904223227 | 83 | 104 | 10.0 | 24.0 | 0.00 | 0.07 | 0.03 | 68 | 1013.2 |
| 20260904222727 | 83 | 61 | 8.0 | 23.0 | 0.00 | 0.07 | 0.03 | 68 | 1013.7 |
| 20260904222229 | 83 | 102 | 13.0 | 25.0 | 0.00 | 0.07 | 0.03 | 69 | 1013.1 |
| 20260904221727 | 82 | 96 | 13.0 | 26.0 | 0.00 | 0.07 | 0.03 | 70 | 1013.5 |
| 20260904221228 | 82 | 102 | 13.0 | 26.0 | 0.00 | 0.07 | 0.03 | 69 | 1013.3 |
| 20260904220728 | 83 | 77 | 10.0 | 24.0 | 0.00 | 0.07 | 0.03 | 68 | 1013.4 |
| 20260904220228 | 83 | 71 | 15.0 | 26.0 | 0.00 | 0.07 | 0.03 | 68 | 1013.5 |
| 20260904215729 | 83 | 79 | 12.0 | 26.0 | 0.00 | 0.07 | 0.03 | 69 | 1013.5 |
| 20260904215228 | 83 | 53 | 9.0 | 23.0 | 0.00 | 0.07 | 0.03 | 71 | 1013.5 |
| 20260904214728 | 83 | 102 | 14.0 | 23.0 | 0.00 | 0.07 | 0.03 | 71 | 1013.5 |
| 20260904214227 | 82 | 83 | 16.0 | 23.0 | 0.00 | 0.07 | 0.03 | 70 | 1013.6 |
| 20260904213727 | 82 | 93 | 16.0 | 29.0 | 0.00 | 0.07 | 0.03 | 71 | 1013.6 |
| 20260904213227 | 82 | 79 | 19.0 | 26.0 | 0.00 | 0.07 | 0.03 | 71 | 1013.2 |
| 20260904212729 | 82 | 75 | 14.0 | 26.0 | 0.00 | 0.07 | 0.03 | 72 | 1013.8 |
| 20260904212228 | 82 | 84 | 14.0 | 26.0 | 0.00 | 0.07 | 0.03 | 72 | 1013.6 |
| 20260904211729 | 82 | 46 | 8.0 | 26.0 | 0.00 | 0.07 | 0.03 | 72 | 1013.6 |
| 20260904211228 | 81 | 120 | 13.0 | 24.0 | 0.00 | 0.07 | 0.03 | 71 | 1013.6 |
| 20260904210727 | 82 | 84 | 14.0 | 24.0 | 0.00 | 0.07 | 0.03 | 71 | 1013.6 |
| 20260904210228 | 82 | 79 | 11.0 | 21.0 | 0.00 | 0.07 | 0.03 | 71 | 1014.0 |
| 20260904205727 | 82 | 72 | 11.0 | 23.0 | 0.00 | 0.07 | 0.03 | 72 | 1014.0 |
| 20260904205227 | 81 | 93 | 11.0 | 26.0 | 0.00 | 0.07 | 0.03 | 70 | 1013.6 |
| 20260904204728 | 81 | 59 | 16.0 | 26.0 | 0.00 | 0.07 | 0.03 | 71 | 1013.7 |
| 20260904204500 | 81 | 65 | 12.0 | 24.0 | 0.00 | 0.07 | 0.03 | 72 | 1013.9 |
| 20260904204336 | 81 | 77 | 12.0 | 21.0 | 0.00 | 0.07 | 0.03 | 73 | 1013.7 |
| 20260904203458 | 81 | 47 | 12.0 | 23.0 | 0.00 | 0.07 | 0.03 | 73 | 1013.7 |
| 20260904202727 | 80 | 84 | 13.0 | 23.0 | 0.00 | 0.07 | 0.03 | 71 | 1013.8 |
| 20260904202229 | 81 | 70 | 14.0 | 23.0 | 0.00 | 0.07 | 0.03 | 73 | 1013.8 |
| 20260904201959 | 81 | 87 | 11.0 | 23.0 | 0.00 | 0.07 | 0.03 | 74 | 1013.5 |
| 20260904201228 | 81 | 84 | 12.0 | 23.0 | 0.00 | 0.07 | 0.03 | 73 | 1013.7 |
| 20260904200730 | 80 | 88 | 9.0 | 23.0 | 0.00 | 0.07 | 0.03 | 73 | 1013.5 |
| 20260904200228 | 80 | 62 | 8.0 | 25.0 | 0.00 | 0.07 | 0.03 | 74 | 1013.5 |
| 20260904200001 | 80 | 69 | 17.0 | 25.0 | 0.00 | 0.07 | 0.03 | 73 | 1013.4 |
| 20260904195228 | 80 | 85 | 9.0 | 24.0 | 0.00 | 0.07 | 0.03 | 74 | 1013.6 |
| 20260904194727 | 80 | 84 | 11.0 | 21.0 | 0.00 | 0.07 | 0.03 | 74 | 1013.5 |
| 20260904194227 | 80 | 109 | 13.0 | 21.0 | 0.00 | 0.07 | 0.03 | 75 | 1013.5 |
| 20260904193727 | 80 | 40 | 9.0 | 28.0 | 0.00 | 0.07 | 0.03 | 74 | 1013.4 |
| 20260904193227 | 80 | 77 | 14.0 | 28.0 | 0.00 | 0.07 | 0.03 | 74 | 1013.5 |
| 20260904192727 | 80 | 78 | 9.0 | 25.0 | 0.00 | 0.07 | 0.03 | 74 | 1013.6 |
| 20260904192228 | 79 | 52 | 13.0 | 25.0 | 0.00 | 0.07 | 0.03 | 74 | 1013.6 |
| 20260904191728 | 79 | 65 | 18.0 | 26.0 | 0.00 | 0.07 | 0.03 | 73 | 1013.5 |
| 20260904191228 | 79 | 81 | 17.0 | 26.0 | 0.00 | 0.07 | 0.03 | 73 | 1013.9 |
| 20260904190727 | 79 | 95 | 9.0 | 28.0 | 0.00 | 0.07 | 0.03 | 72 | 1013.7 |
| 20260904190459 | 79 | 67 | 13.0 | 28.0 | 0.00 | 0.07 | 0.03 | 73 | 1013.5 |
| 20260904185959 | 79 | 92 | 11.0 | 23.0 | 0.00 | 0.07 | 0.03 | 72 | 1013.6 |
| 20260904185227 | 79 | 74 | 13.0 | 23.0 | 0.00 | 0.07 | 0.03 | 74 | 1013.5 |
| 20260904184727 | 78 | 65 | 11.0 | 23.0 | 0.00 | 0.07 | 0.03 | 76 | 1013.6 |
| 20260904184227 | 78 | 103 | 6.0 | 25.0 | 0.00 | 0.07 | 0.03 | 76 | 1013.4 |
| 20260904183727 | 78 | 82 | 11.0 | 25.0 | 0.00 | 0.07 | 0.03 | 75 | 1013.6 |
| 20260904183227 | 78 | 51 | 16.0 | 24.0 | 0.00 | 0.07 | 0.03 | 76 | 1013.4 |
| 20260904182727 | 78 | 69 | 11.0 | 24.0 | 0.00 | 0.07 | 0.03 | 77 | 1013.7 |
| 20260904182228 | 78 | 80 | 11.0 | 20.0 | 0.00 | 0.07 | 0.03 | 76 | 1013.2 |
| 20260904181728 | 78 | 69 | 11.0 | 25.0 | 0.00 | 0.07 | 0.03 | 76 | 1013.4 |
| 20260904181227 | 78 | 94 | 16.0 | 25.0 | 0.00 | 0.07 | 0.03 | 75 | 1013.2 |
| 20260904180727 | 78 | 61 | 11.0 | 24.0 | 0.00 | 0.07 | 0.03 | 77 | 1013.1 |
| 20260904180228 | 78 | 73 | 14.0 | 24.0 | 0.00 | 0.07 | 0.03 | 78 | 1013.1 |
| 20260904180107 | 77 | 68 | 13.0 | 26.0 | 0.00 | 0.07 | 0.03 | 77 | 1013.3 |
| 20260904175959 | 78 | 86 | 14.0 | 26.0 | 0.00 | 0.07 | 0.03 | 79 | 1013.3 |
| 20260904174727 | 77 | 81 | 11.0 | 24.0 | 0.00 | 0.07 | 0.03 | 79 | 1013.2 |
| 20260904174228 | 77 | 103 | 8.0 | 25.0 | 0.00 | 0.07 | 0.03 | 80 | 1013.3 |
| 20260904173728 | 76 | 113 | 8.0 | 25.0 | 0.00 | 0.07 | 0.03 | 80 | 1013.3 |
| 20260904173227 | 76 | 63 | 19.0 | 23.0 | 0.00 | 0.07 | 0.03 | 81 | 1013.0 |
| 20260904172727 | 76 | 113 | 9.0 | 21.0 | 0.00 | 0.07 | 0.03 | 81 | 1013.1 |
| 20260904172459 | 76 | 97 | 5.0 | 20.0 | 0.00 | 0.07 | 0.03 | 80 | 1013.1 |
| 20260904171959 | 76 | 95 | 13.0 | 28.0 | 0.00 | 0.07 | 0.03 | 81 | 1013.0 |
| 20260904171229 | 76 | 58 | 10.0 | 28.0 | 0.00 | 0.07 | 0.03 | 82 | 1012.9 |
| 20260904170728 | 76 | 59 | 10.0 | 21.0 | 0.00 | 0.07 | 0.03 | 83 | 1012.8 |
| 20260904170459 | 76 | 105 | 8.0 | 21.0 | 0.00 | 0.07 | 0.03 | 83 | 1012.8 |
| 20260904165728 | 76 | 109 | 5.0 | 21.0 | 0.00 | 0.07 | 0.03 | 80 | 1012.6 |
| 20260904165228 | 76 | 101 | 8.0 | 21.0 | 0.00 | 0.07 | 0.03 | 79 | 1012.8 |
| 20260904164728 | 76 | 64 | 9.0 | 21.0 | 0.00 | 0.07 | 0.03 | 79 | 1012.6 |
| 20260904164229 | 76 | 93 | 9.0 | 17.0 | 0.01 | 0.07 | 0.03 | 79 | 1012.7 |
| 20260904163733 | 76 | 128 | 11.0 | 19.0 | 0.01 | 0.07 | 0.03 | 79 | 1012.5 |
| 20260904163728 | 76 | 131 | 6.0 | 17.0 | 0.01 | 0.07 | 0.03 | 79 | 1012.5 |
| 20260904162728 | 75 | 106 | 7.0 | 23.0 | 0.01 | 0.07 | 0.03 | 80 | 1012.8 |
| 20260904162500 | 75 | 110 | 8.0 | 23.0 | 0.01 | 0.07 | 0.03 | 83 | 1012.7 |
| 20260904161728 | 74 | 73 | 11.0 | 24.0 | 0.01 | 0.07 | 0.03 | 84 | 1012.6 |
| 20260904161233 | 74 | 96 | 11.0 | 24.0 | 0.01 | 0.08 | 0.03 | 85 | 1012.7 |
| 20260904161229 | 74 | 81 | 11.0 | 17.0 | 0.01 | 0.08 | 0.03 | 86 | 1012.6 |
| 20260904160227 | 74 | 90 | 11.0 | 20.0 | 0.01 | 0.08 | 0.03 | 86 | 1012.6 |
| 20260904155727 | 74 | 115 | 9.0 | 20.0 | 0.01 | 0.08 | 0.03 | 86 | 1012.8 |
| 20260904155228 | 74 | 109 | 8.0 | 25.0 | 0.01 | 0.08 | 0.03 | 86 | 1012.5 |
| 20260904154728 | 76 | 118 | 8.0 | 25.0 | 0.01 | 0.07 | 0.03 | 84 | 1012.8 |
| 20260904154228 | 77 | 91 | 12.0 | 21.0 | 0.00 | 0.07 | 0.02 | 83 | 1012.5 |
| 20260904153728 | 77 | 126 | 4.0 | 17.0 | 0.00 | 0.07 | 0.02 | 81 | 1012.3 |
| 20260904153227 | 77 | 71 | 9.0 | 21.0 | 0.00 | 0.07 | 0.02 | 81 | 1012.3 |
| 20260904152727 | 77 | 116 | 9.0 | 21.0 | 0.00 | 0.07 | 0.02 | 81 | 1012.3 |
| 20260904152228 | 76 | 94 | 8.0 | 17.0 | 0.00 | 0.07 | 0.02 | 82 | 1012.5 |
| 20260904151728 | 76 | 98 | 4.0 | 19.0 | 0.00 | 0.07 | 0.02 | 82 | 1012.7 |
| 20260904151228 | 76 | 79 | 5.0 | 19.0 | 0.00 | 0.07 | 0.02 | 83 | 1012.6 |
| 20260904150727 | 75 | 136 | 5.0 | 17.0 | 0.00 | 0.07 | 0.02 | 84 | 1012.6 |
| 20260904150227 | 75 | 110 | 7.0 | 16.0 | 0.00 | 0.07 | 0.02 | 87 | 1012.6 |
| 20260904145959 | 75 | 48 | 7.0 | 11.0 | 0.00 | 0.07 | 0.02 | 87 | 1012.5 |
| 20260904145458 | 75 | 117 | 7.0 | 11.0 | 0.00 | 0.07 | 0.02 | 87 | 1012.6 |
| 20260904144728 | 75 | 100 | 4.0 | 10.0 | 0.00 | 0.07 | 0.02 | 87 | 1012.6 |
| 20260904144459 | 74 | 106 | 4.0 | 13.0 | 0.00 | 0.07 | 0.02 | 86 | 1012.5 |
| 20260904143727 | 74 | 108 | 5.0 | 16.0 | 0.00 | 0.07 | 0.02 | 86 | 1012.7 |
| 20260904143228 | 74 | 69 | 7.0 | 24.0 | 0.00 | 0.07 | 0.02 | 85 | 1012.6 |
| 20260904142729 | 74 | 114 | 11.0 | 24.0 | 0.00 | 0.07 | 0.02 | 85 | 1012.6 |
| 20260904142227 | 75 | 135 | 8.0 | 24.0 | 0.00 | 0.07 | 0.02 | 85 | 1012.7 |
| 20260904141727 | 76 | 122 | 11.0 | 20.0 | 0.00 | 0.07 | 0.02 | 84 | 1012.3 |
| 20260904141500 | 76 | 104 | 5.0 | 20.0 | 0.00 | 0.07 | 0.02 | 82 | 1012.4 |
| 20260904140728 | 76 | 98 | 6.0 | 17.0 | 0.00 | 0.07 | 0.02 | 82 | 1012.5 |
| 20260904140227 | 75 | 97 | 8.0 | 19.0 | 0.00 | 0.07 | 0.02 | 83 | 1012.5 |
| 20260904135727 | 76 | 93 | 13.0 | 20.0 | 0.00 | 0.07 | 0.02 | 85 | 1012.2 |
| 20260904135229 | 75 | 103 | 5.0 | 21.0 | 0.00 | 0.07 | 0.02 | 85 | 1012.4 |
| 20260904134727 | 75 | 128 | 14.0 | 21.0 | 0.00 | 0.07 | 0.02 | 85 | 1012.4 |
| 20260904134228 | 74 | 73 | 7.0 | 13.0 | 0.00 | 0.07 | 0.02 | 87 | 1012.6 |
| 20260904133727 | 74 | 112 | 5.0 | 14.0 | 0.00 | 0.07 | 0.02 | 87 | 1012.6 |
| 20260904133228 | 74 | 88 | 7.0 | 15.0 | 0.00 | 0.07 | 0.02 | 88 | 1012.6 |
| 20260904133001 | 74 | 48 | 9.0 | 16.0 | 0.00 | 0.07 | 0.02 | 88 | 1012.6 |
| 20260904132228 | 74 | 97 | 11.0 | 17.0 | 0.00 | 0.07 | 0.02 | 88 | 1012.4 |
| 20260904131727 | 74 | 78 | 9.0 | 26.0 | 0.00 | 0.07 | 0.02 | 89 | 1012.5 |
| 20260904131228 | 74 | 93 | 6.0 | 26.0 | 0.00 | 0.07 | 0.02 | 89 | 1012.6 |
| 20260904130728 | 74 | 71 | 14.0 | 24.0 | 0.01 | 0.07 | 0.02 | 89 | 1012.5 |
| 20260904130459 | 73 | 81 | 8.0 | 21.0 | 0.02 | 0.07 | 0.02 | 90 | 1012.9 |
| 20260904125728 | 73 | 75 | 10.0 | 25.0 | 0.02 | 0.07 | 0.02 | 89 | 1012.7 |
| 20260904125227 | 73 | 57 | 12.0 | 31.0 | 0.02 | 0.07 | 0.02 | 89 | 1012.9 |
| 20260904124727 | 73 | 96 | 6.0 | 31.0 | 0.02 | 0.07 | 0.02 | 88 | 1012.8 |
| 20260904124500 | 73 | 106 | 15.0 | 24.0 | 0.02 | 0.07 | 0.02 | 89 | 1013.0 |
| 20260904123728 | 73 | 99 | 11.0 | 17.0 | 0.02 | 0.07 | 0.02 | 89 | 1013.1 |
| 20260904123227 | 73 | 130 | 8.0 | 14.0 | 0.02 | 0.07 | 0.02 | 90 | 1012.9 |
| 20260904122959 | 73 | 75 | 5.0 | 14.0 | 0.02 | 0.07 | 0.02 | 90 | 1013.2 |
| 20260904122228 | 73 | 115 | 8.0 | 17.0 | 0.02 | 0.07 | 0.02 | 90 | 1013.0 |
| 20260904121728 | 73 | 105 | 9.0 | 26.0 | 0.02 | 0.07 | 0.02 | 89 | 1013.2 |
| 20260904121228 | 74 | 121 | 6.0 | 28.0 | 0.02 | 0.07 | 0.02 | 89 | 1013.5 |
| 20260904120729 | 74 | 130 | 9.0 | 28.0 | 0.00 | 0.06 | 0.01 | 87 | 1013.5 |
| 20260904120229 | 76 | 95 | 13.0 | 20.0 | 0.00 | 0.06 | 0.00 | 85 | 1013.3 |
| 20260904115728 | 76 | 80 | 13.0 | 20.0 | 0.00 | 0.06 | 0.00 | 82 | 1013.2 |
| 20260904115228 | 77 | 156 | 6.0 | 21.0 | 0.00 | 0.06 | 0.00 | 80 | 1013.0 |
| 20260904114728 | 77 | 110 | 9.0 | 21.0 | 0.00 | 0.06 | 0.00 | 80 | 1013.2 |
| 20260904114227 | 77 | 68 | 12.0 | 19.0 | 0.00 | 0.06 | 0.00 | 79 | 1013.2 |
| 20260904113727 | 77 | 76 | 8.0 | 19.0 | 0.00 | 0.06 | 0.00 | 80 | 1013.3 |
| 20260904113227 | 76 | 132 | 9.0 | 19.0 | 0.00 | 0.06 | 0.00 | 81 | 1013.1 |
| 20260904112727 | 76 | 66 | 13.0 | 19.0 | 0.00 | 0.06 | 0.00 | 81 | 1013.2 |
| 20260904112228 | 76 | 121 | 9.0 | 17.0 | 0.00 | 0.06 | 0.00 | 81 | 1013.2 |
| 20260904111728 | 76 | 45 | 12.0 | 16.0 | 0.00 | 0.06 | 0.00 | 81 | 1013.3 |
| 20260904111228 | 76 | 96 | 9.0 | 16.0 | 0.00 | 0.06 | 0.00 | 81 | 1013.4 |
| 20260904110715 | 76 | 128 | 9.0 | 20.0 | 0.00 | 0.06 | 0.00 | 82 | 1013.4 |
| 20260904110215 | 75 | 119 | 6.0 | 25.0 | 0.00 | 0.06 | 0.00 | 82 | 1013.4 |
| 20260904105715 | 76 | 156 | 10.0 | 25.0 | 0.00 | 0.06 | 0.00 | 82 | 1013.4 |
| 20260904105216 | 76 | 85 | 12.0 | 26.0 | 0.00 | 0.06 | 0.00 | 83 | 1013.6 |
| 20260904104715 | 77 | 87 | 10.0 | 26.0 | 0.00 | 0.06 | 0.00 | 83 | 1013.6 |
| 20260904104216 | 77 | 90 | 8.0 | 23.0 | 0.00 | 0.06 | 0.00 | 79 | 1013.6 |
| 20260904103715 | 77 | 58 | 9.0 | 23.0 | 0.00 | 0.06 | 0.00 | 80 | 1013.5 |
| 20260904103203 | 77 | 74 | 11.0 | 24.0 | 0.00 | 0.06 | 0.00 | 78 | 1013.8 |
| 20260904102703 | 77 | 156 | 6.0 | 24.0 | 0.00 | 0.06 | 0.00 | 78 | 1013.7 |
| 20260904102203 | 77 | 91 | 5.0 | 20.0 | 0.00 | 0.06 | 0.00 | 77 | 1013.9 |